EW6077 Weather Reports


time (UTC)temp
C
wind
direction
speed
KPH
gust
KPH
rain 1hr
cm
rain 24hr
cm
rain mn
cm
humidity
%
barometer
mb
20260504050001 8 335 29.0 0.0 0.00 0.00 0.00 55 998.8
20260504044500 8 315 30.6 0.0 0.00 0.00 0.00 53 998.7
20260504043110 9 315 30.6 0.0 0.00 0.00 0.00 54 998.6
20260504041600 10 346 37.0 0.0 0.00 0.00 0.00 53 998.4
20260504040106 11 312 29.0 0.0 0.00 0.00 0.00 48 997.9
20260504034601 11 319 29.0 0.0 0.00 0.00 0.00 48 997.6
20260504033100 11 315 24.1 0.0 0.00 0.00 0.00 50 997.4
20260504031604 11 313 19.3 0.0 0.00 0.00 0.00 51 997.2
20260504030057 11 313 17.7 0.0 0.00 0.00 0.00 58 997.4
20260504024558 10 292 20.9 0.0 0.00 0.00 0.00 64 997.5
20260504023058 11 317 32.2 0.0 0.00 0.00 0.00 64 997.6
20260504021556 11 319 27.4 0.0 0.00 0.00 0.00 62 997.6
20260504020055 11 325 27.4 0.0 0.00 0.00 0.00 66 997.4
20260504014601 11 360 33.8 0.0 0.00 0.00 0.00 65 997.4
20260504013107 11 355 38.6 0.0 0.00 0.00 0.00 65 996.8
20260504011554 13 360 38.6 0.0 0.00 0.00 0.00 57 996.4
20260504010112 15 348 38.6 0.0 0.00 0.00 0.00 49 996.0
20260504004554 18 348 22.5 0.0 0.00 0.00 0.00 41 995.4
20260504003053 20 311 9.7 0.0 0.00 0.00 0.00 36 994.3
20260504001601 20 288 9.7 0.0 0.00 0.00 0.00 35 994.4
20260504000052 20 310 9.7 0.0 0.00 0.00 0.00 40 994.7
20260503234551 20 302 11.3 0.0 0.00 0.00 0.00 41 994.7
20260503233059 20 234 8.0 0.0 0.00 0.00 0.00 40 994.6
20260503231548 20 297 9.7 0.0 0.00 0.00 0.00 42 994.7
20260503230047 20 273 11.3 0.0 0.00 0.00 0.00 42 995.2
20260503224545 20 274 12.9 0.0 0.00 0.00 0.00 41 995.4
20260503223044 20 327 17.7 0.0 0.00 0.00 0.00 40 995.7
20260503221549 20 293 16.1 0.0 0.00 0.00 0.00 37 995.8
20260503220043 20 302 27.4 0.0 0.00 0.00 0.00 38 995.8
20260503214539 22 265 17.7 0.0 0.00 0.00 0.00 28 996.2
20260503213038 23 221 20.9 0.0 0.00 0.00 0.00 27 996.3
20260503211535 23 269 19.3 0.0 0.00 0.00 0.00 27 996.5
20260503210044 23 295 16.1 0.0 0.00 0.00 0.00 28 997.0
20260503204530 22 221 17.7 0.0 0.00 0.00 0.00 29 997.5
20260503203028 22 222 14.5 0.0 0.00 0.00 0.00 28 998.0
20260503201532 21 194 14.5 0.0 0.00 0.00 0.00 29 998.6
20260503200023 22 246 19.3 0.0 0.00 0.00 0.00 28 999.0
20260503194519 22 246 16.1 0.0 0.00 0.00 0.00 28 999.3
20260503193017 21 249 16.1 0.0 0.00 0.00 0.00 28 999.9
20260503191515 21 240 14.5 0.0 0.00 0.00 0.00 29 1000.0
20260503190013 21 288 12.9 0.0 0.00 0.00 0.00 30 1000.4
20260503184517 20 234 12.9 0.0 0.00 0.00 0.00 29 1000.6
20260503183009 21 289 11.3 0.0 0.00 0.00 0.00 30 1001.3
20260503181507 21 265 14.5 0.0 0.00 0.00 0.00 29 1001.5
20260503180005 21 269 14.5 0.0 0.00 0.00 0.00 29 1002.1
20260503174502 21 256 14.5 0.0 0.00 0.00 0.00 29 1002.5
20260503173154 21 269 12.9 0.0 0.00 0.00 0.00 29 1002.9
20260503171554 20 257 12.9 0.0 0.00 0.00 0.00 31 1003.4
20260503081512 -2 325 0.0 0.0 0.00 0.00 0.00 82 1010.5
20260503071501 0 325 0.0 0.0 0.00 0.00 0.00 81 1010.5